When you browse on this site, cookies collect data to enhance your experience and personalize the content and advertising you see.
Visit our Privacy Policy to learn more. By continuing to use the site, you agree to this use of cookies and data.
  • In Latvia
  • List of Countries
  • For 7 days
  • Water Temperature
  • Weather Map
  • Weather Widgets
  • user-avatar
    Login

    Hourly Weather Bengazi

    Today, 22 August, Thursday

    Time Temperature Precipitation Wind Pressure Humidity
    00:00 +26°C° 0 mm 9 mps 760 mmHg 73%
    01:00 +26°C° 0 mm 8 mps 760 mmHg 73%
    02:00 +26°C° 0 mm 8 mps 760 mmHg 74%
    03:00 +26°C° 0 mm 8 mps 760 mmHg 76%
    04:00 +24°C° 0 mm 7 mps 760 mmHg 77%
    05:00 +26°C° 0 mm 7 mps 760 mmHg 74%
    06:00 +26°C° 0 mm 7 mps 760 mmHg 70%
    07:00 +27°C° 0 mm 6 mps 760 mmHg 67%
    08:00 +29°C° 0 mm 6 mps 760 mmHg 60%
    09:00 +30°C° 0 mm 6 mps 761 mmHg 54%
    10:00 +33°C° 0 mm 6 mps 761 mmHg 47%
    11:00 +33°C° 0 mm 6 mps 761 mmHg 47%
    12:00 +33°C° 0 mm 7 mps 760 mmHg 47%
    13:00 +33°C° 0 mm 8 mps 760 mmHg 48%
    14:00 +33°C° 0 mm 8 mps 760 mmHg 51%
    15:00 +32°C° 0 mm 9 mps 760 mmHg 54%
    16:00 +32°C° 0 mm 9 mps 759 mmHg 57%
    17:00 +31°C° 0 mm 8 mps 760 mmHg 61%
    18:00 +29°C° 0 mm 8 mps 760 mmHg 66%
    19:00 +28°C° 0 mm 7 mps 760 mmHg 71%
    20:00 +28°C° 0 mm 7 mps 760 mmHg 73%
    21:00 +27°C° 0 mm 7 mps 760 mmHg 76%
    22:00 +27°C° 0 mm 7 mps 760 mmHg 78%
    23:00 +27°C° 0 mm 7 mps 760 mmHg 78%

    Tomorrow, 23 August, Friday

    Time Temperature Precipitation Wind Pressure Humidity
    00:00 +27°C° 0 mm 7 mps 760 mmHg 78%
    01:00 +27°C° 0 mm 7 mps 760 mmHg 78%
    02:00 +27°C° 0 mm 7 mps 759 mmHg 78%
    03:00 +26°C° 0 mm 7 mps 759 mmHg 78%
    04:00 +26°C° 0 mm 7 mps 759 mmHg 77%
    05:00 +27°C° 0 mm 7 mps 759 mmHg 74%
    06:00 +28°C° 0 mm 6 mps 759 mmHg 71%
    07:00 +29°C° 0 mm 6 mps 760 mmHg 68%
    08:00 +30°C° 0 mm 6 mps 760 mmHg 63%
    09:00 +32°C° 0 mm 6 mps 760 mmHg 58%
    10:00 +33°C° 0 mm 6 mps 760 mmHg 53%
    11:00 +34°C° 0 mm 7 mps 760 mmHg 53%
    12:00 +34°C° 0 mm 7 mps 759 mmHg 53%
    13:00 +34°C° 0 mm 8 mps 759 mmHg 53%
    14:00 +34°C° 0 mm 8 mps 759 mmHg 54%
    15:00 +33°C° 0 mm 8 mps 758 mmHg 55%
    16:00 +33°C° 0 mm 9 mps 758 mmHg 56%
    17:00 +32°C° 0 mm 9 mps 758 mmHg 60%
    18:00 +31°C° 0 mm 8 mps 758 mmHg 64%
    19:00 +29°C° 0 mm 8 mps 759 mmHg 68%
    20:00 +29°C° 0 mm 8 mps 759 mmHg 69%
    21:00 +28°C° 0 mm 8 mps 759 mmHg 70%
    22:00 +28°C° 0 mm 9 mps 759 mmHg 71%
    23:00 +28°C° 0 mm 9 mps 759 mmHg 69%

    Day after tomorrow, 24 August, Saturday

    Time Temperature Precipitation Wind Pressure Humidity
    00:00 +28°C° 0 mm 9 mps 758 mmHg 66%
    01:00 +28°C° 0 mm 9 mps 758 mmHg 64%
    02:00 +28°C° 0 mm 8 mps 758 mmHg 69%
    03:00 +28°C° 0 mm 7 mps 758 mmHg 75%
    04:00 +27°C° 0 mm 7 mps 758 mmHg 80%
    05:00 +28°C° 0 mm 7 mps 758 mmHg 75%
    06:00 +29°C° 0 mm 7 mps 758 mmHg 70%
    07:00 +30°C° 0 mm 7 mps 758 mmHg 65%
    08:00 +32°C° 0 mm 6 mps 758 mmHg 61%
    09:00 +33°C° 0 mm 6 mps 759 mmHg 56%
    10:00 +34°C° 0 mm 6 mps 759 mmHg 52%
    11:00 +34°C° 0 mm 7 mps 759 mmHg 51%
    12:00 +35°C° 0 mm 7 mps 759 mmHg 50%
    13:00 +35°C° 0 mm 8 mps 758 mmHg 49%
    14:00 +35°C° 0 mm 9 mps 758 mmHg 50%
    15:00 +34°C° 0 mm 9 mps 758 mmHg 51%
    16:00 +33°C° 0 mm 10 mps 758 mmHg 52%
    17:00 +32°C° 0 mm 9 mps 758 mmHg 57%
    18:00 +31°C° 0 mm 9 mps 758 mmHg 63%
    19:00 +29°C° 0 mm 9 mps 759 mmHg 68%
    20:00 +29°C° 0 mm 8 mps 759 mmHg 66%
    21:00 +29°C° 0 mm 8 mps 759 mmHg 64%
    22:00 +29°C° 0 mm 8 mps 759 mmHg 62%
    23:00 +28°C° 0 mm 7 mps 759 mmHg 65%

    25 August, Sunday

    Time Temperature Precipitation Wind Pressure Humidity
    00:00 +28°C° 0 mm 7 mps 758 mmHg 67%
    01:00 +28°C° 0 mm 6 mps 758 mmHg 69%
    02:00 +28°C° 0 mm 6 mps 758 mmHg 69%
    03:00 +28°C° 0 mm 6 mps 758 mmHg 69%
    04:00 +27°C° 0 mm 5 mps 758 mmHg 69%
    05:00 +28°C° 0 mm 5 mps 758 mmHg 65%
    06:00 +29°C° 0 mm 5 mps 758 mmHg 62%
    07:00 +30°C° 0 mm 5 mps 759 mmHg 58%
    08:00 +32°C° 0 mm 5 mps 759 mmHg 54%
    09:00 +33°C° 0 mm 5 mps 759 mmHg 49%
    10:00 +35°C° 0 mm 5 mps 760 mmHg 45%
    11:00 +35°C° 0 mm 5 mps 759 mmHg 46%
    12:00 +35°C° 0 mm 6 mps 759 mmHg 47%
    13:00 +35°C° 0 mm 7 mps 759 mmHg 47%
    14:00 +35°C° 0 mm 7 mps 759 mmHg 48%
    15:00 +34°C° 0 mm 8 mps 759 mmHg 48%
    16:00 +34°C° 0 mm 8 mps 758 mmHg 48%
    17:00 +33°C° 0 mm 8 mps 759 mmHg 55%
    18:00 +32°C° 0 mm 7 mps 759 mmHg 61%
    19:00 +29°C° 0 mm 6 mps 759 mmHg 68%
    20:00 +29°C° 0 mm 6 mps 759 mmHg 69%
    21:00 +28°C° 0 mm 6 mps 759 mmHg 69%
    22:00 +28°C° 0 mm 5 mps 760 mmHg 70%
    23:00 +28°C° 0 mm 5 mps 759 mmHg 69%

    26 August, Monday

    Time Temperature Precipitation Wind Pressure Humidity
    00:00 +27°C° 0 mm 4 mps 759 mmHg 68%
    01:00 +27°C° 0 mm 4 mps 759 mmHg 67%
    02:00 +27°C° 0 mm 4 mps 759 mmHg 69%
    03:00 +27°C° 0 mm 4 mps 759 mmHg 72%
    04:00 +27°C° 0 mm 4 mps 759 mmHg 74%
    05:00 +27°C° 0 mm 4 mps 759 mmHg 73%
    06:00 +28°C° 0 mm 3 mps 759 mmHg 72%
    07:00 +29°C° 0 mm 3 mps 760 mmHg 71%
    08:00 +30°C° 0 mm 3 mps 760 mmHg 65%
    09:00 +31°C° 0 mm 3 mps 760 mmHg 58%
    10:00 +34°C° 0 mm 3 mps 760 mmHg 51%
    11:00 +34°C° 0 mm 4 mps 760 mmHg 52%
    12:00 +34°C° 0 mm 5 mps 760 mmHg 52%
    13:00 +34°C° 0 mm 6 mps 760 mmHg 53%
    14:00 +33°C° 0 mm 6 mps 760 mmHg 57%
    15:00 +33°C° 0 mm 7 mps 759 mmHg 61%
    16:00 +32°C° 0 mm 7 mps 759 mmHg 65%
    17:00 +30°C° 0 mm 7 mps 759 mmHg 70%
    18:00 +29°C° 0 mm 6 mps 760 mmHg 75%
    19:00 +28°C° 0 mm 6 mps 760 mmHg 81%
    20:00 +28°C° 0 mm 5 mps 760 mmHg 82%
    21:00 +28°C° 0 mm 5 mps 760 mmHg 84%
    22:00 +27°C° 0 mm 5 mps 760 mmHg 86%
    23:00 +27°C° 0 mm 4 mps 760 mmHg 87%

    27 August, Tuesday

    Time Temperature Precipitation Wind Pressure Humidity
    00:00 +27°C° 0 mm 4 mps 760 mmHg 88%
    01:00 +27°C° 0 mm 4 mps 759 mmHg 88%
    02:00 +27°C° 0 mm 4 mps 759 mmHg 88%
    03:00 +26°C° 0 mm 4 mps 759 mmHg 88%
    04:00 +26°C° 0 mm 3 mps 759 mmHg 87%
    05:00 +27°C° 0 mm 3 mps 760 mmHg 81%
    06:00 +28°C° 0 mm 3 mps 760 mmHg 75%
    07:00 +28°C° 0 mm 3 mps 760 mmHg 70%
    08:00 +30°C° 0 mm 3 mps 760 mmHg 62%
    09:00 +31°C° 0 mm 3 mps 761 mmHg 55%
    10:00 +34°C° 0 mm 3 mps 761 mmHg 47%
    11:00 +34°C° 0 mm 4 mps 761 mmHg 49%
    12:00 +34°C° 0 mm 6 mps 761 mmHg 50%
    13:00 +34°C° 0 mm 7 mps 760 mmHg 51%
    14:00 +33°C° 0 mm 7 mps 760 mmHg 54%
    15:00 +33°C° 0 mm 6 mps 760 mmHg 57%
    16:00 +32°C° 0 mm 6 mps 760 mmHg 60%
    17:00 +30°C° 0 mm 6 mps 760 mmHg 67%
    18:00 +29°C° 0 mm 5 mps 760 mmHg 74%
    19:00 +28°C° 0 mm 5 mps 760 mmHg 80%
    20:00 +28°C° 0 mm 5 mps 760 mmHg 83%
    21:00 +28°C° 0 mm 5 mps 760 mmHg 85%
    22:00 +27°C° 0 mm 5 mps 760 mmHg 88%
    23:00 +27°C° 0 mm 4 mps 760 mmHg 87%
    Show more